Simultaneous Nadir Overpasses (SNOs) Predictions

Prediction of SNOs between GOES-14 and AQUA Satellite Orbit:

Table of predicted SNOs for the next 14.0 days since TLE Epoch: 6/3/2023
Index Date Time (GOES-14) GOES-14 Lat,Lon AQUA Lat,Lon Distance(km) Time Diff (sec)
1 06/03/2023 08:51:58 0.04,-108.67 -0.50,-106.13 289.15 80
2 06/03/2023 21:12:52 -0.01,-108.60 -0.58,-111.19 295.42 80
3 06/05/2023 21:01:28 -0.01,-108.61 0.15,-107.76 96.55 80
4 06/06/2023 09:19:35 -0.02,-108.70 0.89,-112.80 466.73 80
5 06/07/2023 20:47:25 -0.02,-108.63 0.90,-104.33 488.68 80
6 06/08/2023 09:06:54 -0.01,-108.71 0.12,-109.37 74.84 3
7 06/10/2023 08:54:06 0.00,-108.73 -0.61,-105.94 317.64 80
8 06/10/2023 21:12:21 0.02,-108.64 -0.45,-111.01 268.26 80
9 06/12/2023 21:00:55 0.02,-108.66 0.26,-107.56 124.96 80
10 06/13/2023 09:19:02 -0.05,-108.76 0.75,-112.61 436.52 80
11 06/15/2023 09:07:36 -0.05,-108.78 0.01,-109.17 43.56 80
